N2TPQ-13 Weather Reports


time (UTC)temp
C
wind
direction
speed
KPH
gust
KPH
rain 1hr
cm
rain 24hr
cm
rain mn
cm
humidity
%
barometer
mb
20260506044544 7 0 0.0 3.2 0.00 0.15 0.00 94 1011.3
20260506043036 7 0 0.0 0.0 0.00 0.15 0.00 93 1011.5
20260506041539 7 0 0.0 1.6 0.00 0.15 0.00 93 1011.1
20260506040057 8 161 1.6 6.4 0.00 0.15 0.00 92 1011.1
20260506034538 8 164 0.0 3.2 0.00 0.15 0.15 92 1011.3
20260506033037 8 0 0.0 1.6 0.00 0.15 0.15 91 1011.3
20260506031554 8 0 0.0 8.0 0.00 0.15 0.15 90 1011.6
20260506030039 9 110 0.0 4.8 0.00 0.15 0.15 89 1012.0
20260506024538 9 0 0.0 3.2 0.00 0.15 0.15 88 1011.7
20260506023038 10 5 0.0 3.2 0.00 0.15 0.15 87 1011.9
20260506021536 11 0 0.0 0.0 0.00 0.15 0.15 87 1012.0
20260506020039 11 0 0.0 4.8 0.00 0.15 0.15 86 1011.9
20260506014537 11 0 0.0 4.8 0.00 0.15 0.15 85 1011.4
20260506013037 11 360 0.0 3.2 0.00 0.15 0.15 84 1011.1
20260506012035 12 360 1.6 8.0 0.00 0.15 0.15 83 1010.8
20260506010041 12 327 4.8 14.5 0.00 0.15 0.15 84 1010.5
20260506004538 13 0 0.0 4.8 0.00 0.15 0.15 84 1010.7
20260506003038 13 332 3.2 14.5 0.00 0.15 0.15 83 1010.8
20260506001537 15 24 4.8 12.9 0.00 0.15 0.15 87 1010.3
20260506000035 15 5 0.0 6.4 0.00 0.15 0.15 87 1010.1
20260505234545 15 360 3.2 11.3 0.00 0.15 0.15 86 1009.7
20260505233041 16 360 3.2 11.3 0.00 0.15 0.15 83 1009.7
20260505231545 17 119 6.4 12.9 0.00 0.15 0.15 78 1009.3
20260505230036 17 182 3.2 12.9 0.00 0.15 0.15 78 1008.8
20260505224539 17 0 0.0 16.1 0.00 0.15 0.15 78 1008.9
20260505223048 18 207 11.3 27.4 0.00 0.15 0.15 71 1008.8
20260505221538 20 0 0.0 4.8 0.00 0.15 0.15 71 1008.3
20260505220041 19 209 1.6 6.4 0.00 0.15 0.15 71 1008.1
20260505214549 19 207 4.8 12.9 0.00 0.15 0.15 73 1008.0
20260505213042 19 216 3.2 9.7 0.00 0.15 0.15 76 1007.8
20260505211537 19 231 3.2 9.7 0.00 0.15 0.15 78 1007.6
20260505210038 18 209 3.2 8.0 0.00 0.15 0.15 79 1007.8
20260505204539 17 198 4.8 14.5 0.03 0.15 0.15 84 1007.9
20260505203037 17 196 6.4 12.9 0.05 0.15 0.15 83 1007.9
20260505201545 16 211 3.2 8.0 0.10 0.15 0.15 91 1008.2
20260505200043 15 216 1.6 11.3 0.10 0.15 0.15 93 1008.7
20260505194540 16 185 1.6 4.8 0.08 0.13 0.13 90 1009.2
20260505193037 16 187 4.8 12.9 0.05 0.10 0.10 85 1009.1
20260505191540 18 236 0.0 4.8 0.00 0.05 0.05 76 1009.0
20260505190040 18 0 1.6 8.0 0.00 0.05 0.05 74 1008.5
20260505184539 20 0 3.2 19.3 0.00 0.05 0.05 66 1007.8
20260505183040 22 0 4.8 12.9 0.00 0.05 0.05 52 1007.3
20260505181601 22 155 4.8 19.3 0.00 0.05 0.05 49 1006.9
20260505180040 22 194 4.8 22.5 0.00 0.05 0.05 49 1007.0
20260505174542 22 180 8.0 17.7 0.00 0.05 0.05 49 1007.1
20260505173042 22 171 3.2 19.3 0.00 0.05 0.05 51 1007.6
20260505171539 21 187 1.6 24.1 0.00 0.05 0.05 52 1007.7
20260505170036 22 0 6.4 19.3 0.00 0.05 0.05 50 1007.8
20260505164554 22 0 12.9 32.2 0.00 0.05 0.05 50 1007.7
20260505163050 22 153 8.0 20.9 0.00 0.05 0.05 49 1007.3
20260505161538 22 214 6.4 17.7 0.00 0.05 0.05 52 1007.2
20260505153037 22 150 9.7 30.6 0.00 0.05 0.05 50 1007.9
20260505151540 22 284 6.4 29.0 0.00 0.05 0.05 53 1007.7
20260505130106 17 207 6.4 20.9 0.00 0.05 0.05 71 1007.8
20260505124552 16 194 4.8 16.1 0.00 0.05 0.05 72 1008.0
20260505123054 16 190 6.4 19.3 0.00 0.05 0.05 73 1008.3
20260505121538 15 219 6.4 14.5 0.00 0.05 0.05 76 1008.2
20260505120039 15 203 3.2 9.7 0.00 0.05 0.05 80 1008.5
20260505114538 14 213 3.2 11.3 0.00 0.05 0.05 81 1008.4
20260505113039 14 188 1.6 14.5 0.00 0.05 0.05 83 1008.1
20260505111541 13 297 3.2 12.9 0.00 0.05 0.05 87 1008.0
20260505101536 13 183 4.8 16.1 0.05 0.05 0.05 86 1007.7
20260505100040 15 201 4.8 14.5 0.00 0.00 0.00 69 1008.3
20260505094541 14 219 3.2 8.0 0.00 0.00 0.00 70 1008.1
20260505093037 14 209 3.2 12.9 0.00 0.00 0.00 70 1007.7
20260505091537 14 187 3.2 12.9 0.00 0.00 0.00 70 1007.6
20260505090039 14 208 1.6 9.7 0.00 0.00 0.00 69 1007.7
20260505084536 15 0 1.6 8.0 0.00 0.00 0.00 68 1007.4
20260505083039 15 0 1.6 8.0 0.00 0.00 0.00 68 1007.4
20260505081545 15 223 1.6 12.9 0.00 0.00 0.00 66 1007.4
20260505080042 15 202 3.2 12.9 0.00 0.00 0.00 66 1007.5
20260505074537 15 321 0.0 6.4 0.00 0.00 0.00 68 1007.5
20260505073045 15 0 0.0 8.0 0.00 0.00 0.00 68 1007.5
20260505071549 15 213 1.6 11.3 0.00 0.00 0.00 67 1007.4
20260505070042 15 0 0.0 9.7 0.00 0.00 0.00 67 1007.5
20260505064538 15 0 0.0 9.7 0.00 0.00 0.00 67 1007.7
20260505063037 15 0 0.0 9.7 0.00 0.00 0.00 67 1007.6
20260505061535 15 202 0.0 6.4 0.00 0.00 0.00 65 1007.6
20260505060045 15 0 0.0 8.0 0.00 0.00 0.00 64 1007.7